Location: Croisilles
(50.1998°N, 2.8793°E)
Time: 13:37:20
(UTC+00:00)

Lacrosse 5 - Pass Details

Date: 21 January 2021
Orbit: 715 x 724 km, 57.0° (Epoch: 22 February)

Event Time Altitude Azimuth Distance (km) Brightness Sun altitude
Rises 18:22:34 0° 302° (WNW) 3,124 5.9 -18.6°
Reaches altitude 10° 18:25:00 10° 298° (WNW) 2,201 5.1 -19.0°
Maximum altitude 18:29:55 53° 222° (SW) 878 2.5 -19.7°
Enters shadow 18:34:02 14° 149° (SSE) 1,905 3.8 -20.4°
